Miscellaneous Local Product
Issued by NWS Hastings, NE

Home | Current Version | Previous Version | Graphics & Text | Print | Product List | Glossary On
Versions: 1 2 3 4 5 6 7 8 9 10 11 12 13 14 15 16 17 18 19 20 21 22 23 24 25 26 27 28 29 30 31 32 33 34 35 36 37 38 39 40 41 42 43 44 45 46 47 48 49 50
000
AXUS43 KGID 200902
MISGRI

GID CWA HOURLY WEATHER ROUNDUP
NATIONAL WEATHER SERVICE HASTINGS NE
400 AM CDT MON OCT 20 2014

NOTE: "FAIR" INDICATES FEW OR NO CLOUDS BELOW 12,000 FEET WITH NO
SIGNIFICANT WEATHER AND/OR OBSTRUCTIONS TO VISIBILITY.

...SOUTH CENTRAL NEBRASKA...

CITY           SKY/WX    TMP DP  RH WIND       PRES   REMARKS
GRAND ISLAND   CLEAR     45  41  86 W6        30.04S
HASTINGS       CLEAR     49  43  80 W5        30.04S
KEARNEY        CLEAR     45  41  87 W6        30.06S
ORD            CLEAR     42  38  85 NW7       30.05S
YORK           CLEAR     46  45  93 NW6       30.03S
AURORA         CLEAR     46  44  91 W5        30.03S
LEXINGTON      CLEAR     43  40  91 W7        30.07S
HOLDREGE       CLEAR     47  43  87 CALM      30.05S
HEBRON         CLEAR     44  42  91 CALM      30.03S

...NEBRASKA PANHANDLE...

CITY           SKY/WX    TMP DP  RH WIND       PRES   REMARKS
CHADRON        CLEAR     35  33  92 W3        30.10S
ALLIANCE       CLEAR     35  32  88 W3        30.12F
SCOTTSBLUFF    CLEAR     37  35  92 NW6       30.13S WCI  32
SIDNEY         CLEAR     38  33  82 W8        30.14S WCI  32

...WESTERN AND NORTH CENTRAL NEBRASKA...

CITY           SKY/WX    TMP DP  RH WIND       PRES   REMARKS
VALENTINE      CLEAR     37  33  85 W6        30.09S WCI  32
AINSWORTH      CLEAR     43  36  76 CALM      30.08S
ONEILL         CLEAR     43  38  83 NW5       30.06S
BROKEN BOW     CLEAR     38  34  85 CALM      30.07R
IMPERIAL       CLEAR     45  37  73 W5        30.12S
NORTH PLATTE   CLEAR     35  33  92 NW6       30.10R WCI  30
MCCOOK         CLEAR     40  38  93 SW7       30.09S

...EASTERN NEBRASKA...

CITY           SKY/WX    TMP DP  RH WIND       PRES   REMARKS
NORFOLK        CLEAR     43  38  82 W5        30.02R
SO SIOUX CITY  CLEAR     43  40  89 W3        30.01R
TEKAMAH        CLEAR     46  42  86 N9        29.99R
COLUMBUS       CLEAR     41  36  81 W3        30.02S
ALBION         CLEAR     41  37  83 N6        30.04S
OMAHA EPPLEY   CLEAR     47  45  93 NW7       29.98S
OFFUTT AFB     CLEAR     47  47 100 NW5       29.97S
MILLARD        CLEAR     48  46  93 CALM      29.98S
LINCOLN        CLEAR     48  44  86 CALM      30.01S
NEBRASKA CITY  CLEAR     54  47  78 W10       29.97F
BEATRICE       CLEAR     45  44  97 CALM      30.01F
FALLS CITY     CLEAR     52  48  86 W6        29.98F

...NORTHERN KANSAS...

CITY           SKY/WX    TMP DP  RH WIND       PRES   REMARKS
GOODLAND       CLEAR     41  38  89 W5        30.13S
HILL CITY      CLEAR     44  41  89 W5        30.06S
NORTON         SUNNY     45  39  81 W6        30.05
PHILLIPSBURG   CLEAR     45  45 100 W6        30.05S
SMITH CENTER   CLEAR     43  39  87 NW6       30.04F
BELOIT         CLEAR     45  45 100 CALM      30.02S
HAYS           CLEAR     46  43  87 NW6       30.03F
RUSSELL        CLEAR     49  47  93 N6        30.01F
CONCORDIA      CLEAR     49  48  97 W3        30.02S
SALINA         CLEAR     51  47  86 CALM      30.02S
TOPEKA         FOG       49  48  97 CALM      30.01F VSB 1/2



USA.gov is the U.S. government's official web portal to all federal, state and local government web resources and services.